Preview of NWS' New Version of Forecast
This preview is not operational and should not be used for support decisions.

Regional Weather Roundup (RWR)

Issued by Melbourne, FL (MLB)

                            
000
ASUS42 KMLB 200711
RWRMLB
HOURLY WEATHER ROUNDUP AROUND FLORIDA
NATIONAL WEATHER SERVICE OFFICE MELBOURNE FL
300 AM EDT MON MAY 20 2019
  
CITY           SKY/WX    TMP DP  RH WIND       PRES   REMARKS
MELBOURNE      MOCLDY    78  70  76 SE7       30.01F                  
FORT PIERCE    FAIR      76  68  76 SE6       30.01F                  
ORLANDO INTL   FAIR      72  69  90 S3        30.02F                  
DAYTONA BEACH  FAIR      72  72 100 CALM      30.02F                  
VERO BEACH     FAIR      78  69  73 SE8       30.01F                  
$$
...ELSEWHERE ACROSS CENTRAL FLORIDA...
  
CITY           SKY/WX    TMP DP  RH WIND       PRES   REMARKS
PATRICK AFB    FAIR      77  75  92 SE7       30.01F                  
KSC            FAIR      74  70  88 SE3       30.01F                  
CAPE CANAVERAL FAIR      76  63  62 SE8       30.01S                  
ORLANDO EXEC   FAIR      74  70  87 SE5       30.02F                  
LEESBURG       FAIR      75  71  87 SE6       30.03F                  
SANFORD        FAIR      74  71  91 CALM      30.02F                  
DELAND         FAIR      72  70  94 S3        30.02F                  
WINTER HAVEN   FAIR      74  71  91 E5        30.03F                  
KISSIMMEE      FAIR      74  71  91 SE5       30.03F                  
OKEECHOBEE     FAIR      68  68 100 CALM      30.01F                  
TAMPA          MOCLDY    79  68  69 VRB3      30.01F                  
$$
...NORTHERN FLORIDA...
  
CITY           SKY/WX    TMP DP  RH WIND       PRES   REMARKS
PALM COAST     FAIR      69  68  96 CALM      30.03S                  
ST AUGUSTINE   FAIR      74  71  91 S3        30.03F                  
OCALA          FAIR      70  65  84 CALM      30.03S                  
GAINESVILLE    FAIR      73  69  87 CALM      30.05S                  
JACKSONVILLE   FAIR      72  69  90 CALM      30.02F                  
TALLAHASSEE    FAIR      66  65  96 CALM      30.02S                  
$$
...ALONG THE SOUTHEAST COAST TO THE KEYS...
  
CITY           SKY/WX    TMP DP  RH WIND       PRES   REMARKS
STUART         FAIR      77  68  73 CALM      30.02S                  
WEST PALM BCH  FAIR      78  69  73 SE6       30.00F                  
MIAMI          FAIR      79  70  74 E3        29.99F                  
KEY WEST       FAIR      80  71  74 E7        29.98F                  
$$
...MARINE REPORTS...
  
STATION/POSITION TIME  TEMP    WIND        PRES    WAVE   SWELL
                       AIR SEA DIR/SP/G            HT/PER HT/PER
                 (UTC) (F)     (DEG/KT/KT) (MB)    (FT/S) (FT/S)
ST AUGUSTINE FP  0700   75 81  190/  6/  6 1016.8F
20NM E CAPE CANA 0650   79     140/ 12/ 16 1016.8F   3/ 6   2/13
TRIDENT PIER     0642   77 81  130/  7/ 11 1017.8F
SEBASTIAN INLET  0645   78 78  130/ 12     1017.0S
4NM E PORT CANAV 0700      79                N/A     3/ 5
6NM NE FPR INLET 0630      79                N/A     3/ 4
SETTLEMENT PT GB 0700   77     120/  5/  7 1015.8F
$$